Zurück zum Katalog

STARLINK-30846

AktivKommunikationVLEO
NORAD 58210·PAYLOAD·🇺🇸 United States

Gestartet Nov 3, 2023 von Cape Canaveral Space Force Station

Loading…

Nächste Überflüge (nächste 24 Stunden)

TLE

AktuellSource: CelesTrak SupGP

Epoche: Sep 14, 2026, 14:27 UTC

1 58210C 23170E   26257.60256944 -.00016593  00000+0 -60116-3 0  2576
2 58210  43.0031 207.8246 0001364 271.1230 161.3371 15.27578604    16

Verfolge STARLINK-30846 in Echtzeit mit AllMySat

Download on the App Store